Tracking 20093 objects as of 15-Dec-2019
HD Live streaming from Space Station
objects crossing your sky now

SL-12 DEB

Track SL-12 DEB now!
10-day predictions


NORAD ID: 43525
Int'l Code: 2010-007X
Perigee: 319.5 km
Apogee: 18,229.9 km
Inclination: 66.0 °
Period: 324.6 minutes
Semi major axis: 15645 km
RCS: Unknown
Launch date: March 1, 2010
Source: Commonwealth of Independent States (former USSR) (CIS)
Launch site: TYURATAM MISSILE AND SPACE COMPLEX (TTMTR)

Note: This is SATELLITE DEBRIS
aabbcc
Your satellite tracking list
Your tracking list is empty




NASA's NSSDC Master Catalog

Two Line Element Set (TLE):
1 43525U 10007X   18266.92067132 +.01153260 +00000-0 +32081+0 0  9991
2 43525 066.0409 135.0331 5723750 040.6770 014.6987 04.43619621004987
Source of the keplerian elements: AFSPC